STARLINK-1672, 46537

Orbit data source: Space-Track

STARLINK-1672, 46537 is a payload satellite owned by SpaceX/Seattle (US) in LEO that was launched on Tue, 06 Oct 2020 UTC via an FALCON 9 launch vehicle from the Air Force Eastern Test Range (AFETR). Payload-class satellites include a variety of spacecraft equipped with specific instruments for various scientific and technological missions. These include communications satellites like Starlink; space stations such as the ISS; scientific satellites like the Hubble; Earth observation satellites from companies like Planet Labs, Umbra, and HawkEye 360; GPS; miniature CubeSats for education and research; and military/defense satellites.

Loading next visibility...
Identifier
46537, 2020-070F
Orbit
LEO
Country
Flag of USUS
Related business
Manufacturer
SpaceX/Seattle
Mission
Partially operational Commercial Communications
Bus & Motor
STARLINK, Unknown motor
Mass
260 kg wet, ~248 kg dry
Launch date (UTC)
2020-10-06 (5 years ago)
Launch vehicle
FALCON 9
Launch site
Air Force Eastern Test Range (AFETR)
Object type
Payload
Rocket body
Debris
Shape & HBR
Box + 1 Pan, 10.1 m
Radar Cross Section
13.562 m², Large (>1 m²)

Expand to show TLE details & history
Last TLE update: 6 hours ago

TLE from 6 hours ago
0 STARLINK-1672
1 46537U 20070F   25309.95432852  .00043182  00000-0  11626-2 0  9997
2 46537  53.0557   8.5807 0002141  46.4486 313.6694 15.37449401280909
Epoch: 2025-11-05T22:54Z
TLE epoch observation values (Epoch: 2025-11-05T22:54:13.984Z)
Latitude
-0.00001°
Longitude
-20.39717°
Altitude
453.536 km
Speed
7.642 km/s
True Right ascension
00h 34m 19s
True Declination
0° 00' 00"
Sunlit
Object was in full shadow at epoch
Visualization orbit readout
Latitude
Unknown
Longitude
Unknown
Altitude
Unknown
Speed
Unknown
Apparent Right ascension
Unknown
Apparent Declination
Unknown
Sunlit
N/A
Visualization observer readout
Local Sidereal Time
01:00:44
Azimuth
Unknown
Elevation
Unknown
Doppler factor
Unknown
Orbital elements
Apogee altitude
455.392 km
Perigee altitude
452.466 km
Semi-major axis
6,832.066 km
Eccentricity
0.00021
Inclination
53.0557°
RAAN
8.5807°
Arg. of periapsis
46.4486°
True anomaly
313.65165°
Mean anomaly
313.6694°
Eccentric anomaly
313.66053°
Mean motion
3.8434 °/min
Orbital period
93.67 mins
BSTAR
0.0011626
Loading maneuver chart data...
Computing Atmospheric mass density...
Loading historical data...
Loading historical data...
Loading historical data...
Loading historical data...
Loading historical data...
Loading historical data...
Loading historical data...

Documentation

Showing up to 5 results
|